Stations météo

Publicité
Istres, France (7647): Température de l'air & dewpoint: 07.08.2020 12:00:00 - 13.08.2020 12:00:00 (CEST)Istres, France (7647): Température de l'air 5cm: 07.08.2020 12:00:00 - 13.08.2020 12:00:00 (CEST)Istres, France (7647): Vitesse du vent & gusts: 07.08.2020 12:00:00 - 13.08.2020 12:00:00 (CEST)Istres, France (7647): Direction du vent: 07.08.2020 12:00:00 - 13.08.2020 12:00:00 (CEST)Istres, France (7647): reduced air pressure: 07.08.2020 12:00:00 - 13.08.2020 12:00:00 (CEST)Istres, France (7647): visibility: 07.08.2020 12:00:00 - 13.08.2020 12:00:00 (CEST)Istres, France (7647): Quantités de précipitations: 07.08.2020 12:00:00 - 13.08.2020 12:00:00 (CEST)
Date & Time tt [°C] td [°C] tt 5cm [°C] ff [km/h] ff [knt] fx [km/h] fx [knt] dd ppp [hPa] vv [km] rr [mm]
13.08.2020 12:00:00 - - - - - - - - - - -
13.08.2020 11:00:00 - - - - - - - - - - -
13.08.2020 10:00:00 - - - - - - - - - - -
13.08.2020 09:00:00 - - - - - - - - - - -
13.08.2020 08:00:00 - - - - - - - - - - -
13.08.2020 07:00:00 - - - - - - - - - - -
13.08.2020 06:00:00 - - - - - - - - - - -
13.08.2020 05:00:00 - - - - - - - - - - -
13.08.2020 04:00:00 - - - - - - - - - - -
13.08.2020 03:00:00 - - - - - - - - - - -
13.08.2020 02:00:00 - - - - - - - - - - -
13.08.2020 01:00:00 - - - - - - - - - - -
13.08.2020 00:00:00 - - - - - - - - - - -
12.08.2020 23:00:00 - - - - - - - - - - -
12.08.2020 22:00:00 - - - - - - - - - - -
12.08.2020 21:00:00 - - - - - - - - - - -
12.08.2020 20:00:00 - - - - - - - - - - -
12.08.2020 19:00:00 - - - - - - - - - - -
12.08.2020 18:00:00 - - - - - - - - - - -
12.08.2020 17:00:00 - - - - - - - - - - -
12.08.2020 16:00:00 - - - - - - - - - - -
12.08.2020 15:00:00 - - - - - - - - - - -
12.08.2020 14:00:00 - - - - - - - - - - -
12.08.2020 13:00:00 - - - - - - - - - - -
12.08.2020 12:00:00 - - - - - - - - - - -
12.08.2020 11:00:00 - - - - - - - - - - -
12.08.2020 10:00:00 - - - - - - - - - - -
12.08.2020 09:00:00 - - - - - - - - - - -
12.08.2020 08:00:00 - - - - - - - - - - -
12.08.2020 07:00:00 - - - - - - - - - - -
12.08.2020 06:00:00 - - - - - - - - - - -
12.08.2020 05:00:00 - - - - - - - - - - -
12.08.2020 04:00:00 - - - - - - - - - - -
12.08.2020 03:00:00 - - - - - - - - - - -
12.08.2020 02:00:00 - - - - - - - - - - -
12.08.2020 01:00:00 - - - - - - - - - - -
12.08.2020 00:00:00 - - - - - - - - - - -
11.08.2020 23:00:00 - - - - - - - - - - -
11.08.2020 22:00:00 - - - - - - - - - - -
11.08.2020 21:00:00 - - - - - - - - - - -
11.08.2020 20:00:00 - - - - - - - - - - -
11.08.2020 19:00:00 - - - - - - - - - - -
11.08.2020 18:00:00 - - - - - - - - - - -
11.08.2020 17:00:00 - - - - - - - - - - -
11.08.2020 16:00:00 - - - - - - - - - - -
11.08.2020 15:00:00 30,7 19,4 39,0 24 13 36 19 SSW 1015,5 51 0,0
11.08.2020 14:00:00 31,3 19,0 39,6 19 11 36 19 SSW 1015,4 59 0,0
11.08.2020 13:00:00 31,4 18,4 39,2 16 9 31 17 S 1015,7 60 0,0
11.08.2020 12:00:00 31,4 18,0 36,4 15 8 24 13 S 1015,7 20 0,0
11.08.2020 11:00:00 29,9 15,2 33,2 15 8 23 13 SE 1015,6 60 0,0
11.08.2020 10:00:00 27,4 20,0 30,6 11 6 18 10 ESE 1015,7 25 0,0
11.08.2020 09:00:00 25,8 20,6 26,5 8 4 16 9 ESE 1015,8 20 0,0
11.08.2020 08:00:00 24,0 20,7 21,5 7 4 11 6 ESE 1015,5 18 0,0
11.08.2020 07:00:00 21,7 20,7 20,4 8 4 11 6 E 1015,2 7 0,2
11.08.2020 06:00:00 21,9 20,5 20,3 2 1 11 6 S 1015,1 5 0,0
11.08.2020 05:00:00 22,4 20,9 21,9 9 5 19 11 NNE 1015,1 12 0,0
11.08.2020 04:00:00 22,9 21,7 22,6 12 6 22 12 N 1015,1 11 0,0
11.08.2020 03:00:00 23,5 22,3 22,9 9 5 27 15 S 1014,2 15 0,0
11.08.2020 02:00:00 23,6 22,4 22,7 19 11 27 14 SSE 1014,2 7 0,0
11.08.2020 01:00:00 23,6 21,9 23,0 6 3 12 7 S 1015,1 14 0,0
11.08.2020 00:00:00 23,9 21,8 22,6 5 3 9 5 S 1015,6 25 0,0
10.08.2020 23:00:00 24,7 22,2 23,5 4 2 10 6 SSW 1015,9 20 0,0
10.08.2020 22:00:00 25,2 22,3 24,2 4 2 13 7 NNE 1016,0 49 0,0
10.08.2020 21:00:00 25,6 22,1 25,9 10 5 21 12 SSW 1015,5 51 0,0
10.08.2020 20:00:00 26,8 22,4 27,7 14 8 28 15 S 1014,4 56 0,0
10.08.2020 19:00:00 28,1 22,3 30,3 19 10 29 16 S 1013,8 38 0,0
10.08.2020 18:00:00 27,5 21,8 30,4 22 12 36 19 S 1014,2 40 0,0
10.08.2020 17:00:00 28,6 22,4 34,5 23 13 38 20 S 1014,1 38 0,0
10.08.2020 16:00:00 29,9 22,1 35,8 24 13 39 21 SSW 1014,1 48 0,0
10.08.2020 15:00:00 29,9 20,7 35,5 31 17 42 23 SSW 1014,1 57 0,0
10.08.2020 14:00:00 30,2 21,3 35,5 18 10 30 16 SE 1013,3 55 0,0
10.08.2020 13:00:00 28,9 20,9 34,6 14 8 26 14 S 1014,6 52 0,0
10.08.2020 12:00:00 28,3 21,1 31,1 14 7 24 13 SW 1015,1 41 0,0
10.08.2020 11:00:00 27,9 19,4 30,6 9 5 25 14 S 1014,9 55 0,0
10.08.2020 10:00:00 25,7 20,5 27,1 7 4 18 10 SE 1014,6 17 0,0
10.08.2020 09:00:00 23,7 21,2 24,8 10 6 19 10 S 1014,9 6 0,0
10.08.2020 08:00:00 21,4 20,6 20,1 5 3 8 4 SSW 1014,6 8 0,0
10.08.2020 07:00:00 20,4 19,7 19,6 5 3 8 4 SW 1014,5 3,0 0,2
10.08.2020 06:00:00 20,6 20,1 20,3 0 0 8 4 N 1014,1 0,3 0,0
10.08.2020 05:00:00 20,5 19,7 20,2 7 4 10 6 WNW 1014,3 0,6 0,0
10.08.2020 04:00:00 20,9 19,6 20,4 6 3 12 6 NNE 1014,2 12 0,0
10.08.2020 03:00:00 21,7 20,2 21,4 8 5 12 7 NNW 1014,4 20 0,0
10.08.2020 02:00:00 22,0 20,3 20,9 4 2 9 5 W 1014,2 11 0,0
10.08.2020 01:00:00 22,3 20,4 21,7 5 3 16 9 NW 1014,3 12 0,0
10.08.2020 00:00:00 22,8 20,9 22,2 9 5 13 7 SE 1013,8 10 0,0
09.08.2020 23:00:00 22,8 20,7 22,3 0 0 6 3 N 1014,9 25 0,0
09.08.2020 22:00:00 22,9 20,8 22,9 6 3 15 8 SW 1015,4 31 0,0
09.08.2020 21:00:00 24,2 20,9 24,3 11 6 17 9 SSW 1015,0 30 0,0
09.08.2020 20:00:00 25,7 20,7 26,7 13 7 20 11 S 1014,8 34 0,0
09.08.2020 19:00:00 27,6 20,9 30,3 16 8 27 15 SSE 1014,8 30 0,0
09.08.2020 18:00:00 30,6 19,0 36,6 14 7 29 15 S 1014,9 19 0,0
09.08.2020 17:00:00 32,0 17,1 39,8 16 9 34 19 SSW 1014,9 19 0,0
09.08.2020 16:00:00 32,2 14,8 40,4 19 10 29 16 S 1014,9 42 0,0
09.08.2020 15:00:00 32,0 14,6 40,0 16 9 31 17 S 1015,4 19 0,0
09.08.2020 14:00:00 32,3 13,0 41,5 22 12 31 17 S 1015,9 20 0,0
09.08.2020 13:00:00 33,5 11,4 40,1 16 8 26 14 S 1016,1 49 0,0
09.08.2020 12:00:00 32,0 17,5 37,0 8 4 18 10 SSW 1016,5 19 0,0
09.08.2020 11:00:00 30,0 14,5 33,8 11 6 18 10 ESE 1016,8 58 0,0
09.08.2020 10:00:00 27,4 15,7 30,3 10 5 16 9 ESE 1017,0 45 0,0
09.08.2020 09:00:00 24,4 15,6 25,8 7 4 16 8 ENE 1017,3 20 0,0
09.08.2020 08:00:00 21,7 15,8 20,1 8 4 14 7 N 1017,3 36 0,0
09.08.2020 07:00:00 19,8 17,6 19,5 10 5 14 8 NNE 1016,8 18 0,0
09.08.2020 06:00:00 20,4 19,1 19,9 7 4 16 9 N 1016,7 10 0,0
09.08.2020 05:00:00 20,7 19,4 20,3 10 5 16 8 NNE 1016,7 6 0,0
09.08.2020 04:00:00 21,7 20,3 21,0 9 5 19 10 ENE 1016,7 8 0,0
09.08.2020 03:00:00 21,3 19,8 20,8 9 5 14 8 NE 1017,2 12 0,0
09.08.2020 02:00:00 21,7 19,4 21,4 6 4 13 7 NE 1017,5 16 0,0
09.08.2020 01:00:00 22,9 20,2 22,6 8 4 17 9 ESE 1017,7 18 0,0
09.08.2020 00:00:00 22,9 20,2 23,0 13 7 19 10 ESE 1017,7 10 0,0
08.08.2020 23:00:00 22,9 20,6 23,3 14 8 21 11 S 1017,6 10 0,0
08.08.2020 22:00:00 22,8 20,5 23,0 14 8 22 12 SSW 1017,2 9 0,0
08.08.2020 21:00:00 22,9 20,8 22,9 16 8 23 12 S 1016,5 17 0,0
08.08.2020 20:00:00 24,3 20,8 25,0 18 10 27 15 S 1016,2 25 0,0
08.08.2020 19:00:00 27,2 21,0 32,4 20 11 29 16 S 1015,9 44 0,0
08.08.2020 18:00:00 29,2 19,8 36,0 19 10 32 17 SSW 1016,2 41 0,0
08.08.2020 17:00:00 31,0 18,0 39,1 19 10 31 17 S 1016,4 33 0,0
08.08.2020 16:00:00 32,3 18,5 40,5 18 10 38 20 SSW 1016,6 20 0,0
08.08.2020 15:00:00 32,7 19,2 41,1 14 7 26 14 SW 1017,1 54 0,0
08.08.2020 14:00:00 32,5 20,4 39,9 15 8 29 16 S 1017,6 19 0,0
08.08.2020 13:00:00 31,7 16,4 38,2 9 5 22 12 WSW 1018,1 56 0,0
08.08.2020 12:00:00 29,5 18,3 36,2 8 4 18 10 WSW 1018,5 56 0,0
08.08.2020 11:00:00 28,0 13,9 33,1 8 4 18 10 W 1019,0 60 0,0
08.08.2020 10:00:00 26,1 11,1 30,8 6 4 14 8 NNW 1019,3 60 0,0
08.08.2020 09:00:00 23,9 10,2 25,2 8 5 14 7 N 1019,4 17 0,0
08.08.2020 08:00:00 20,3 11,0 18,5 11 6 15 8 NNE 1018,9 3,4 0,0
08.08.2020 07:00:00 17,6 12,1 17,1 9 5 17 9 NNE 1019,1 56 0,0
08.08.2020 06:00:00 18,8 14,5 17,9 11 6 15 8 N 1019,0 4,5 0,0
08.08.2020 05:00:00 18,4 17,4 17,9 6 3 13 7 NNE 1018,9 15 0,0
08.08.2020 04:00:00 20,0 19,0 20,0 9 5 13 7 NE 1019,2 0,4 0,0
08.08.2020 03:00:00 20,9 20,1 21,5 9 5 14 8 NNE 1019,6 1,2 0,0
08.08.2020 02:00:00 22,1 21,3 22,6 5 3 11 6 N 1020,0 2,6 0,0
08.08.2020 01:00:00 22,1 21,4 22,4 3 2 8 5 W 1019,8 0,9 0,0
08.08.2020 00:00:00 22,2 21,4 21,5 3 2 11 6 WSW 1019,6 0,6 0,0
07.08.2020 23:00:00 22,0 20,5 21,5 7 4 13 7 S 1019,3 3,5 0,0
07.08.2020 22:00:00 22,6 20,3 22,2 9 5 13 7 SSE 1018,5 27 0,0
07.08.2020 21:00:00 24,4 19,0 23,9 10 5 16 9 SSE 1017,7 59 0,0
07.08.2020 20:00:00 26,9 17,4 28,9 10 6 21 11 SSW 1017,4 59 0,0
07.08.2020 19:00:00 28,6 16,5 34,4 12 7 26 14 S 1017,3 60 0,0
07.08.2020 18:00:00 29,8 15,9 37,1 16 9 30 16 SSW 1017,7 59 0,0
07.08.2020 17:00:00 30,6 12,0 38,2 19 10 31 17 S 1017,9 51 0,0
07.08.2020 16:00:00 31,9 10,6 39,6 20 11 32 17 S 1018,0 20 0,0
07.08.2020 15:00:00 32,6 8,1 39,8 16 9 37 20 SSW 1018,1 54 0,0
07.08.2020 14:00:00 31,6 9,8 39,6 14 7 25 13 SSW 1018,3 20 0,0
07.08.2020 13:00:00 31,2 11,1 40,0 13 7 26 14 S 1018,4 20 0,0
07.08.2020 12:00:00 31,2 8,8 36,5 11 6 24 13 S 1018,5 42 0,0

tt = Température de l'air
td = dewpoint
tt 5cm = Température de l'air 5cm
ff = Vitesse du vent
fx = gusts
dd = Direction du vent
ppp = reduced air pressure
vv = visibility
rr = Quantités de précipitations

stations d'obs. à proximité